• Em Portugal
  • Lista de países
  • Para 7 dias
  • Temperatura da água
  • Mapas de satélite
  • Mapa do tempo
  • Widgets de tempo
  • user-avatar
    Iniciar Sessão

    Previsão horária em Mochudi

    Hoje, 18 Agosto, Sábado

    Tempo Temperatura Precipitação Vento Pressão Humidade
    00:00 +19°C° 0 mm 4 m/s 682 mmHg 14%
    01:00 +18°C° 0 mm 4 m/s 682 mmHg 16%
    02:00 +17°C° 0 mm 4 m/s 683 mmHg 23%
    03:00 +15°C° 0 mm 4 m/s 683 mmHg 26%
    04:00 +14°C° 0 mm 4 m/s 683 mmHg 30%
    05:00 +13°C° 0 mm 4 m/s 683 mmHg 34%
    06:00 +13°C° 0 mm 4 m/s 683 mmHg 34%
    07:00 +13°C° 0 mm 4 m/s 683 mmHg 35%
    08:00 +14°C° 0 mm 4 m/s 683 mmHg 34%
    09:00 +17°C° 0 mm 4 m/s 684 mmHg 31%
    10:00 +20°C° 0 mm 3 m/s 684 mmHg 28%
    11:00 +22°C° 0 mm 3 m/s 684 mmHg 25%
    12:00 +25°C° 0 mm 3 m/s 684 mmHg 24%
    13:00 +27°C° 0 mm 4 m/s 684 mmHg 23%
    14:00 +28°C° 0 mm 3 m/s 684 mmHg 14%
    15:00 +28°C° 0 mm 3 m/s 684 mmHg 16%
    16:00 +28°C° 0 mm 3 m/s 683 mmHg 19%
    17:00 +28°C° 0 mm 3 m/s 683 mmHg 22%
    18:00 +26°C° 0 mm 4 m/s 683 mmHg 31%
    19:00 +23°C° 0 mm 5 m/s 683 mmHg 41%
    20:00 +21°C° 0 mm 6 m/s 683 mmHg 51%
    21:00 +20°C° 0 mm 6 m/s 684 mmHg 55%
    22:00 +19°C° 0 mm 6 m/s 684 mmHg 59%
    23:00 +19°C° 0 mm 6 m/s 684 mmHg 63%

    Amanhã, 19 Agosto, Domingo

    Tempo Temperatura Precipitação Vento Pressão Humidade
    00:00 +17°C° 0 mm 5 m/s 684 mmHg 66%
    01:00 +16°C° 0 mm 5 m/s 684 mmHg 68%
    02:00 +15°C° 0 mm 4 m/s 684 mmHg 71%
    03:00 +15°C° 0 mm 4 m/s 684 mmHg 73%
    04:00 +14°C° 0 mm 4 m/s 683 mmHg 75%
    05:00 +14°C° 0 mm 4 m/s 683 mmHg 77%
    06:00 +14°C° 0 mm 4 m/s 684 mmHg 76%
    07:00 +14°C° 0 mm 4 m/s 684 mmHg 74%
    08:00 +15°C° 0 mm 5 m/s 684 mmHg 72%
    09:00 +16°C° 0 mm 5 m/s 685 mmHg 66%
    10:00 +19°C° 0 mm 4 m/s 685 mmHg 60%
    11:00 +20°C° 0 mm 4 m/s 685 mmHg 54%
    12:00 +22°C° 0 mm 4 m/s 684 mmHg 47%
    13:00 +25°C° 0 mm 4 m/s 684 mmHg 40%
    14:00 +27°C° 0 mm 3 m/s 683 mmHg 34%
    15:00 +27°C° 0 mm 3 m/s 683 mmHg 31%
    16:00 +28°C° 0 mm 2 m/s 683 mmHg 29%
    17:00 +28°C° 0 mm 2 m/s 682 mmHg 27%
    18:00 +26°C° 0 mm 2 m/s 682 mmHg 31%
    19:00 +24°C° 0 mm 2 m/s 682 mmHg 35%
    20:00 +23°C° 0 mm 2 m/s 682 mmHg 40%
    21:00 +21°C° 0 mm 2 m/s 682 mmHg 43%
    22:00 +20°C° 0 mm 2 m/s 682 mmHg 46%
    23:00 +20°C° 0 mm 2 m/s 682 mmHg 49%

    Depois de amanhã, 20 Agosto, Segunda-feira

    Tempo Temperatura Precipitação Vento Pressão Humidade
    00:00 +19°C° 0 mm 3 m/s 682 mmHg 52%
    01:00 +19°C° 0 mm 3 m/s 682 mmHg 55%
    02:00 +18°C° 0 mm 3 m/s 682 mmHg 58%
    03:00 +18°C° 0 mm 3 m/s 681 mmHg 60%
    04:00 +17°C° 0 mm 3 m/s 681 mmHg 62%
    05:00 +17°C° 0 mm 3 m/s 681 mmHg 63%
    06:00 +17°C° 0 mm 3 m/s 681 mmHg 62%
    07:00 +18°C° 0 mm 2 m/s 682 mmHg 60%
    08:00 +18°C° 0 mm 2 m/s 682 mmHg 58%
    09:00 +21°C° 0 mm 3 m/s 683 mmHg 49%
    10:00 +25°C° 0 mm 3 m/s 683 mmHg 39%
    11:00 +28°C° 0 mm 3 m/s 684 mmHg 29%
    12:00 +30°C° 0 mm 3 m/s 683 mmHg 25%
    13:00 +33°C° 0 mm 3 m/s 682 mmHg 20%
    14:00 +34°C° 0 mm 3 m/s 682 mmHg 15%
    15:00 +34°C° 0 mm 3 m/s 681 mmHg 15%
    16:00 +34°C° 0 mm 2 m/s 681 mmHg 14%
    17:00 +34°C° 0 mm 2 m/s 681 mmHg 13%
    18:00 +31°C° 0 mm 2 m/s 681 mmHg 15%
    19:00 +28°C° 0 mm 1 m/s 681 mmHg 18%
    20:00 +26°C° 0 mm 1 m/s 680 mmHg 20%
    21:00 +25°C° 0 mm 1 m/s 681 mmHg 22%
    22:00 +25°C° 0 mm 2 m/s 681 mmHg 23%
    23:00 +24°C° 0 mm 2 m/s 681 mmHg 25%

    21 Agosto, Terça-feira

    Tempo Temperatura Precipitação Vento Pressão Humidade
    00:00 +23°C° 0 mm 2 m/s 681 mmHg 26%
    01:00 +23°C° 0 mm 2 m/s 680 mmHg 28%
    02:00 +21°C° 0 mm 3 m/s 680 mmHg 29%
    03:00 +21°C° 0 mm 3 m/s 680 mmHg 30%
    04:00 +20°C° 0 mm 3 m/s 680 mmHg 31%
    05:00 +20°C° 0 mm 3 m/s 679 mmHg 32%
    06:00 +20°C° 0 mm 2 m/s 680 mmHg 31%
    07:00 +21°C° 0 mm 2 m/s 681 mmHg 30%
    08:00 +23°C° 0 mm 2 m/s 681 mmHg 29%
    09:00 +26°C° 0 mm 3 m/s 682 mmHg 25%
    10:00 +28°C° 0 mm 3 m/s 682 mmHg 20%
    11:00 +32°C° 0 mm 4 m/s 683 mmHg 16%
    12:00 +34°C° 0 mm 4 m/s 682 mmHg 14%
    13:00 +35°C° 0 mm 5 m/s 681 mmHg 12%
    14:00 +36°C° 0 mm 5 m/s 681 mmHg 10%
    15:00 +36°C° 0 mm 5 m/s 681 mmHg 10%
    16:00 +35°C° 0 mm 4 m/s 680 mmHg 10%
    17:00 +35°C° 0 mm 4 m/s 680 mmHg 10%
    18:00 +33°C° 0 mm 3 m/s 680 mmHg 12%
    19:00 +30°C° 0 mm 3 m/s 680 mmHg 14%
    20:00 +28°C° 0 mm 2 m/s 680 mmHg 16%
    21:00 +27°C° 0 mm 2 m/s 681 mmHg 16%
    22:00 +26°C° 0 mm 2 m/s 681 mmHg 16%
    23:00 +25°C° 0 mm 2 m/s 681 mmHg 16%

    22 Agosto, Quarta-feira

    Tempo Temperatura Precipitação Vento Pressão Humidade
    00:00 +24°C° 0 mm 2 m/s 681 mmHg 17%
    01:00 +23°C° 0 mm 2 m/s 680 mmHg 17%
    02:00 +21°C° 0 mm 2 m/s 680 mmHg 17%
    03:00 +20°C° 0 mm 2 m/s 680 mmHg 17%
    04:00 +19°C° 0 mm 2 m/s 680 mmHg 18%
    05:00 +18°C° 0 mm 2 m/s 680 mmHg 18%
    06:00 +19°C° 0 mm 2 m/s 681 mmHg 17%
    07:00 +20°C° 0 mm 2 m/s 681 mmHg 17%
    08:00 +21°C° 0 mm 2 m/s 682 mmHg 16%
    09:00 +24°C° 0 mm 3 m/s 682 mmHg 16%
    10:00 +26°C° 0 mm 4 m/s 682 mmHg 16%
    11:00 +29°C° 0 mm 5 m/s 682 mmHg 16%
    12:00 +30°C° 0 mm 4 m/s 682 mmHg 15%
    13:00 +33°C° 0 mm 4 m/s 681 mmHg 14%
    14:00 +34°C° 0 mm 4 m/s 681 mmHg 13%
    15:00 +34°C° 0 mm 3 m/s 680 mmHg 13%
    16:00 +34°C° 0 mm 3 m/s 680 mmHg 13%
    17:00 +32°C° 0 mm 2 m/s 680 mmHg 12%
    18:00 +31°C° 0 mm 2 m/s 680 mmHg 15%
    19:00 +29°C° 0 mm 2 m/s 680 mmHg 17%
    20:00 +27°C° 0 mm 2 m/s 681 mmHg 19%
    21:00 +26°C° 0,2 mm 2 m/s 681 mmHg 23%
    22:00 +25°C° 0,2 mm 2 m/s 681 mmHg 26%
    23:00 +24°C° 0,2 mm 2 m/s 681 mmHg 30%

    23 Agosto, Quinta-feira

    Tempo Temperatura Precipitação Vento Pressão Humidade
    00:00 +23°C° 0,2 mm 2 m/s 680 mmHg 35%
    01:00 +23°C° 0,2 mm 2 m/s 680 mmHg 41%
    02:00 +21°C° 0,2 mm 2 m/s 680 mmHg 46%
    03:00 +20°C° 0 mm 2 m/s 680 mmHg 51%
    04:00 +20°C° 0 mm 3 m/s 680 mmHg 55%
    05:00 +19°C° 0 mm 3 m/s 680 mmHg 59%
    06:00 +20°C° 0 mm 3 m/s 680 mmHg 58%
    07:00 +20°C° 0 mm 4 m/s 680 mmHg 57%
    08:00 +21°C° 0 mm 4 m/s 681 mmHg 55%
    09:00 +22°C° 0 mm 4 m/s 681 mmHg 50%
    10:00 +25°C° 0 mm 5 m/s 681 mmHg 44%
    11:00 +27°C° 0 mm 5 m/s 681 mmHg 39%
    12:00 +28°C° 0 mm 4 m/s 680 mmHg 34%
    13:00 +30°C° 0 mm 3 m/s 680 mmHg 29%
    14:00 +31°C° 0 mm 2 m/s 679 mmHg 23%
    15:00 +31°C° 0 mm 2 m/s 679 mmHg 22%
    16:00 +31°C° 0 mm 2 m/s 678 mmHg 21%
    17:00 +31°C° 0 mm 1 m/s 678 mmHg 20%
    18:00 +30°C° 0 mm 2 m/s 678 mmHg 23%
    19:00 +28°C° 0 mm 2 m/s 678 mmHg 26%
    20:00 +26°C° 0 mm 3 m/s 678 mmHg 30%
    21:00 +26°C° 0 mm 3 m/s 678 mmHg 31%
    22:00 +26°C° 0 mm 3 m/s 678 mmHg 32%
    23:00 +26°C° 0 mm 3 m/s 679 mmHg 33%
    Mostrar mais